Orbital Elements at Epoch 2459000.5 (2020-May-31.0) TDB
Reference: JPL 17 (heliocentric ecliptic J2000)
Element | Value | Uncertainty (1-sigma) | Units |
e | .1958905373367162 | 4.1529e-08 | |
a | 2.315649347805214 | 1.0886e-08 | au |
q | 1.862035552780235 | 9.6156e-08 | au |
i | 9.163343757413882 | 4.3928e-06 | deg |
node | 219.7044994073033 | 2.1486e-05 | deg |
peri | 192.4350546023799 | 2.3555e-05 | deg |
M | 204.6339679965593 | 1.1674e-05 | deg |
tp | 2459555.970749419485 (2021-Dec-07.47074942) | 4.4737e-05 | TDB |
period | 1287.086161707381 3.52 | 9.0756e-06 2.485e-08 | d yr |
n | .2797015543407311 | 1.9723e-09 | deg/d |
Q | 2.769263142830194 | 1.3018e-08 | au |
|
| | Orbit Determination Parameters
Additional Information
|